When you browse on this site, cookies collect data to enhance your experience and personalize the content and advertising you see.
Visit our Privacy Policy to learn more. By continuing to use the site, you agree to this use of cookies and data.
  • In Österreich
  • Länderverzeichnis
  • Für 7 Tage
  • Wassertemperatur
  • Satellitenkarten
  • Wetterkarte
  • News
  • Widgets
  • user-avatar
    Anmelden

    Stündliche Wetter Stow

    Heute, 22 April, Montag

    Zeit Temperatur Niederschläge Wind Luftdruck Luftfeuchtigkeit
    00:00 +8°C° 0 mm 1 m/S 736 mmHg 87%
    01:00 +7°C° 0 mm 1 m/S 736 mmHg 90%
    02:00 +7°C° 0 mm 1 m/S 736 mmHg 90%
    03:00 +7°C° 0 mm 1 m/S 736 mmHg 90%
    04:00 +7°C° 0 mm 1 m/S 736 mmHg 90%
    05:00 +7°C° 0 mm 0 m/S 737 mmHg 87%
    06:00 +7°C° 0 mm 0 m/S 737 mmHg 83%
    07:00 +8°C° 0 mm 0 m/S 737 mmHg 79%
    08:00 +10°C° 0 mm 0 m/S 738 mmHg 74%
    09:00 +13°C° 0 mm 1 m/S 738 mmHg 69%
    10:00 +14°C° 0 mm 1 m/S 738 mmHg 64%
    11:00 +16°C° 0 mm 1 m/S 738 mmHg 59%
    12:00 +19°C° 0 mm 1 m/S 737 mmHg 55%
    13:00 +21°C° 0 mm 1 m/S 737 mmHg 50%
    14:00 +21°C° 0 mm 1 m/S 737 mmHg 50%
    15:00 +22°C° 0 mm 1 m/S 736 mmHg 50%
    16:00 +22°C° 0 mm 1 m/S 736 mmHg 50%
    17:00 +20°C° 0 mm 1 m/S 735 mmHg 55%
    18:00 +19°C° 0 mm 1 m/S 735 mmHg 61%
    19:00 +16°C° 0 mm 2 m/S 734 mmHg 67%
    20:00 +15°C° 0 mm 2 m/S 734 mmHg 70%
    21:00 +15°C° 0 mm 2 m/S 734 mmHg 72%
    22:00 +14°C° 0 mm 2 m/S 734 mmHg 75%
    23:00 +14°C° 0 mm 2 m/S 734 mmHg 75%

    Morgen, 23 April, Dienstag

    Zeit Temperatur Niederschläge Wind Luftdruck Luftfeuchtigkeit
    00:00 +12°C° 0 mm 3 m/S 733 mmHg 75%
    01:00 +12°C° 0 mm 3 m/S 733 mmHg 75%
    02:00 +12°C° 0 mm 3 m/S 733 mmHg 76%
    03:00 +12°C° 0 mm 4 m/S 732 mmHg 77%
    04:00 +11°C° 0 mm 4 m/S 732 mmHg 78%
    05:00 +12°C° 0 mm 4 m/S 731 mmHg 76%
    06:00 +12°C° 0 mm 5 m/S 731 mmHg 75%
    07:00 +13°C° 0 mm 6 m/S 730 mmHg 74%
    08:00 +14°C° 0.7 mm 6 m/S 730 mmHg 76%
    09:00 +15°C° 0.7 mm 6 m/S 730 mmHg 79%
    10:00 +16°C° 0.7 mm 6 m/S 730 mmHg 81%
    11:00 +17°C° 0.1 mm 6 m/S 729 mmHg 81%
    12:00 +17°C° 0.1 mm 6 m/S 729 mmHg 81%
    13:00 +19°C° 0.1 mm 6 m/S 729 mmHg 81%
    14:00 +17°C° 0.2 mm 6 m/S 729 mmHg 81%
    15:00 +17°C° 0.2 mm 6 m/S 728 mmHg 81%
    16:00 +16°C° 0.2 mm 6 m/S 728 mmHg 81%
    17:00 +15°C° 0 mm 5 m/S 728 mmHg 81%
    18:00 +14°C° 0 mm 5 m/S 729 mmHg 82%
    19:00 +13°C° 0 mm 4 m/S 729 mmHg 82%
    20:00 +12°C° 0 mm 4 m/S 729 mmHg 83%
    21:00 +11°C° 0 mm 3 m/S 730 mmHg 84%
    22:00 +9°C° 0 mm 3 m/S 730 mmHg 85%
    23:00 +9°C° 0 mm 3 m/S 730 mmHg 83%

    übermorgen, 24 April, Mittwoch

    Zeit Temperatur Niederschläge Wind Luftdruck Luftfeuchtigkeit
    00:00 +8°C° 0 mm 3 m/S 731 mmHg 82%
    01:00 +7°C° 0 mm 2 m/S 731 mmHg 81%
    02:00 +7°C° 0 mm 2 m/S 731 mmHg 83%
    03:00 +6°C° 0 mm 2 m/S 731 mmHg 85%
    04:00 +5°C° 0 mm 2 m/S 731 mmHg 87%
    05:00 +6°C° 0 mm 2 m/S 731 mmHg 84%
    06:00 +6°C° 0 mm 2 m/S 732 mmHg 81%
    07:00 +6°C° 0 mm 2 m/S 732 mmHg 77%
    08:00 +8°C° 0 mm 2 m/S 732 mmHg 68%
    09:00 +10°C° 0 mm 3 m/S 733 mmHg 59%
    10:00 +11°C° 0 mm 3 m/S 733 mmHg 50%
    11:00 +12°C° 0 mm 3 m/S 733 mmHg 46%
    12:00 +13°C° 0 mm 3 m/S 732 mmHg 42%
    13:00 +14°C° 0 mm 3 m/S 732 mmHg 38%
    14:00 +14°C° 0 mm 3 m/S 732 mmHg 38%
    15:00 +16°C° 0 mm 3 m/S 731 mmHg 38%
    16:00 +16°C° 0 mm 3 m/S 731 mmHg 38%
    17:00 +14°C° 0 mm 2 m/S 731 mmHg 41%
    18:00 +12°C° 0 mm 2 m/S 731 mmHg 45%
    19:00 +10°C° 0 mm 1 m/S 731 mmHg 49%
    20:00 +10°C° 0 mm 1 m/S 731 mmHg 48%
    21:00 +9°C° 0 mm 1 m/S 731 mmHg 48%
    22:00 +7°C° 0 mm 0 m/S 731 mmHg 47%
    23:00 +8°C° 0 mm 1 m/S 731 mmHg 47%

    25 April, Donnerstag

    Zeit Temperatur Niederschläge Wind Luftdruck Luftfeuchtigkeit
    00:00 +7°C° 0 mm 1 m/S 731 mmHg 48%
    01:00 +7°C° 0 mm 1 m/S 731 mmHg 49%
    02:00 +7°C° 0 mm 1 m/S 731 mmHg 51%
    03:00 +7°C° 0 mm 1 m/S 730 mmHg 54%
    04:00 +5°C° 0 mm 2 m/S 730 mmHg 56%
    05:00 +6°C° 0 mm 2 m/S 730 mmHg 59%
    06:00 +7°C° 0 mm 2 m/S 730 mmHg 61%
    07:00 +7°C° 0 mm 2 m/S 730 mmHg 64%
    08:00 +10°C° 0 mm 2 m/S 730 mmHg 60%
    09:00 +14°C° 0 mm 2 m/S 730 mmHg 56%
    10:00 +16°C° 0 mm 3 m/S 730 mmHg 52%
    11:00 +18°C° 0 mm 3 m/S 729 mmHg 51%
    12:00 +19°C° 0 mm 2 m/S 729 mmHg 49%
    13:00 +20°C° 0 mm 2 m/S 729 mmHg 47%
    14:00 +20°C° 0 mm 2 m/S 728 mmHg 53%
    15:00 +20°C° 0 mm 2 m/S 727 mmHg 59%
    16:00 +19°C° 0 mm 2 m/S 727 mmHg 65%
    17:00 +18°C° 0 mm 2 m/S 726 mmHg 73%
    18:00 +17°C° 0 mm 2 m/S 726 mmHg 81%
    19:00 +15°C° 0 mm 2 m/S 725 mmHg 89%
    20:00 +15°C° 0.1 mm 2 m/S 725 mmHg 91%
    21:00 +14°C° 0.1 mm 1 m/S 725 mmHg 93%
    22:00 +14°C° 0.1 mm 1 m/S 725 mmHg 96%
    23:00 +14°C° 0.3 mm 1 m/S 724 mmHg 96%

    26 April, Freitag

    Zeit Temperatur Niederschläge Wind Luftdruck Luftfeuchtigkeit
    00:00 +14°C° 0.3 mm 1 m/S 724 mmHg 97%
    01:00 +14°C° 0.3 mm 1 m/S 723 mmHg 98%
    02:00 +14°C° 1.1 mm 2 m/S 723 mmHg 97%
    03:00 +12°C° 1.1 mm 3 m/S 723 mmHg 96%
    04:00 +12°C° 1.1 mm 3 m/S 723 mmHg 94%
    05:00 +11°C° 1.3 mm 4 m/S 723 mmHg 94%
    06:00 +9°C° 1.3 mm 5 m/S 724 mmHg 93%
    07:00 +7°C° 1.3 mm 6 m/S 725 mmHg 92%
    08:00 +9°C° 0.1 mm 6 m/S 726 mmHg 84%
    09:00 +10°C° 0.1 mm 7 m/S 727 mmHg 76%
    10:00 +11°C° 0.1 mm 7 m/S 728 mmHg 69%
    11:00 +12°C° 0 mm 7 m/S 728 mmHg 61%
    12:00 +14°C° 0 mm 7 m/S 728 mmHg 53%
    13:00 +15°C° 0 mm 6 m/S 729 mmHg 46%
    14:00 +15°C° 0 mm 7 m/S 729 mmHg 44%
    15:00 +15°C° 0 mm 7 m/S 729 mmHg 43%
    16:00 +15°C° 0 mm 7 m/S 730 mmHg 41%
    17:00 +13°C° 0 mm 6 m/S 730 mmHg 44%
    18:00 +12°C° 0 mm 5 m/S 731 mmHg 47%
    19:00 +10°C° 0 mm 4 m/S 731 mmHg 49%
    20:00 +8°C° 0 mm 4 m/S 732 mmHg 50%
    21:00 +8°C° 0 mm 3 m/S 732 mmHg 50%
    22:00 +7°C° 0 mm 3 m/S 733 mmHg 50%
    23:00 +5°C° 0 mm 3 m/S 733 mmHg 51%

    27 April, Samstag

    Zeit Temperatur Niederschläge Wind Luftdruck Luftfeuchtigkeit
    00:00 +5°C° 0 mm 3 m/S 733 mmHg 51%
    01:00 +5°C° 0 mm 2 m/S 734 mmHg 51%
    02:00 +5°C° 0 mm 2 m/S 734 mmHg 52%
    03:00 +5°C° 0 mm 1 m/S 734 mmHg 53%
    04:00 +5°C° 0 mm 1 m/S 734 mmHg 54%
    05:00 +5°C° 0 mm 1 m/S 734 mmHg 55%
    06:00 +6°C° 0 mm 1 m/S 735 mmHg 55%
    07:00 +7°C° 0 mm 1 m/S 735 mmHg 56%
    08:00 +9°C° 0 mm 1 m/S 735 mmHg 50%
    09:00 +11°C° 0 mm 1 m/S 735 mmHg 44%
    10:00 +13°C° 0 mm 1 m/S 735 mmHg 38%
    11:00 +13°C° 0 mm 2 m/S 734 mmHg 38%
    12:00 +14°C° 0 mm 2 m/S 734 mmHg 39%
    13:00 +14°C° 0 mm 3 m/S 733 mmHg 39%
    14:00 +12°C° 0.5 mm 3 m/S 732 mmHg 50%
    15:00 +11°C° 0.5 mm 3 m/S 732 mmHg 62%
    16:00 +10°C° 0.5 mm 3 m/S 731 mmHg 73%
    17:00 +10°C° 0.1 mm 3 m/S 730 mmHg 74%
    18:00 +8°C° 0.1 mm 4 m/S 730 mmHg 75%
    19:00 +8°C° 0.1 mm 5 m/S 729 mmHg 76%
    20:00 +8°C° 0 mm 5 m/S 729 mmHg 73%
    21:00 +9°C° 0 mm 5 m/S 729 mmHg 71%
    22:00 +9°C° 0 mm 6 m/S 728 mmHg 69%
    23:00 +10°C° 0 mm 6 m/S 727 mmHg 68%
    Mehr zeigen